Year,Month,Day,Hour,Minute,Value (Times are PST for temperature in C)
2020,06,14,00,00,12.90
2020,06,14,00,01,12.90
2020,06,14,00,02,12.90
2020,06,14,00,03,12.90
2020,06,14,00,04,12.90
2020,06,14,00,05,12.90
2020,06,14,00,06,12.90
2020,06,14,00,07,12.90
2020,06,14,00,08,12.90
2020,06,14,00,09,12.90
2020,06,14,00,10,12.80
2020,06,14,00,11,12.80
2020,06,14,00,12,12.80
2020,06,14,00,13,12.80
2020,06,14,00,14,12.80
2020,06,14,00,15,12.80
2020,06,14,00,16,12.80
2020,06,14,00,17,12.80
2020,06,14,00,18,12.80
2020,06,14,00,19,12.80
2020,06,14,00,20,12.80
2020,06,14,00,21,12.80
2020,06,14,00,22,12.80
2020,06,14,00,23,12.70
2020,06,14,00,24,12.70
2020,06,14,00,25,12.70
2020,06,14,00,26,12.70
2020,06,14,00,27,12.70
2020,06,14,00,28,12.70
2020,06,14,00,29,12.70
2020,06,14,00,30,12.70
2020,06,14,00,31,12.70
2020,06,14,00,32,12.70
2020,06,14,00,33,12.70
2020,06,14,00,34,12.70
2020,06,14,00,35,12.70
2020,06,14,00,36,12.70
2020,06,14,00,37,12.70
2020,06,14,00,38,12.70
2020,06,14,00,39,12.70
2020,06,14,00,40,12.70
2020,06,14,00,41,12.70
2020,06,14,00,42,12.70
2020,06,14,00,43,12.70
2020,06,14,00,44,12.70
2020,06,14,00,45,12.60
2020,06,14,00,46,12.60
2020,06,14,00,47,12.60
2020,06,14,00,48,12.60
2020,06,14,00,49,12.60
2020,06,14,00,50,12.60
2020,06,14,00,51,12.60
2020,06,14,00,52,12.60
2020,06,14,00,53,12.60
2020,06,14,00,54,12.60
2020,06,14,00,55,12.60
2020,06,14,00,56,12.60
2020,06,14,00,57,12.60
2020,06,14,00,58,12.60
2020,06,14,00,59,12.60
2020,06,14,01,00,12.60
2020,06,14,01,01,12.60
2020,06,14,01,02,12.60
2020,06,14,01,03,12.60
2020,06,14,01,04,12.60
2020,06,14,01,05,12.60
2020,06,14,01,06,12.60
2020,06,14,01,07,12.50
2020,06,14,01,08,12.50
2020,06,14,01,09,12.50
2020,06,14,01,10,12.50
2020,06,14,01,11,12.40
2020,06,14,01,12,12.40
2020,06,14,01,13,12.40
2020,06,14,01,14,12.40
2020,06,14,01,15,12.40
2020,06,14,01,16,12.40
2020,06,14,01,17,12.30
2020,06,14,01,18,12.30
2020,06,14,01,19,12.30
2020,06,14,01,20,12.20
2020,06,14,01,21,12.20
2020,06,14,01,22,12.20
2020,06,14,01,23,12.20
2020,06,14,01,24,12.10
2020,06,14,01,25,12.10
2020,06,14,01,26,12.10
2020,06,14,01,27,12.00
2020,06,14,01,28,12.00
2020,06,14,01,29,12.00
2020,06,14,01,30,12.00
2020,06,14,01,31,11.90
2020,06,14,01,32,11.90
2020,06,14,01,33,11.90
2020,06,14,01,34,11.80
2020,06,14,01,35,11.80
2020,06,14,01,36,11.80
2020,06,14,01,37,11.80
2020,06,14,01,38,11.80
2020,06,14,01,39,11.70
2020,06,14,01,40,11.70
2020,06,14,01,41,11.70
2020,06,14,01,42,11.60
2020,06,14,01,43,11.60
2020,06,14,01,44,11.60
2020,06,14,01,45,11.50
2020,06,14,01,46,11.50
2020,06,14,01,47,11.50
2020,06,14,01,48,11.40
2020,06,14,01,49,11.40
2020,06,14,01,50,11.40
2020,06,14,01,51,11.40
2020,06,14,01,52,11.30
2020,06,14,01,53,11.30
2020,06,14,01,54,11.30
2020,06,14,01,55,11.30
2020,06,14,01,56,11.30
2020,06,14,01,57,11.20
2020,06,14,01,58,11.20
2020,06,14,01,59,11.20
2020,06,14,02,00,11.20
2020,06,14,02,01,11.10
2020,06,14,02,02,11.10
2020,06,14,02,03,11.10
2020,06,14,02,04,11.10
2020,06,14,02,05,11.10
2020,06,14,02,06,11.00
2020,06,14,02,07,11.00
2020,06,14,02,08,11.00
2020,06,14,02,09,11.00
2020,06,14,02,10,10.90
2020,06,14,02,11,10.90
2020,06,14,02,12,10.90
2020,06,14,02,13,10.90
2020,06,14,02,14,10.80
2020,06,14,02,15,10.80
2020,06,14,02,16,10.80
2020,06,14,02,17,10.80
2020,06,14,02,18,10.80
2020,06,14,02,19,10.80
2020,06,14,02,20,10.80
2020,06,14,02,21,10.80
2020,06,14,02,22,10.70
2020,06,14,02,23,10.70
2020,06,14,02,24,10.70
2020,06,14,02,25,10.70
2020,06,14,02,26,10.70
2020,06,14,02,27,10.70
2020,06,14,02,28,10.60
2020,06,14,02,29,10.60
2020,06,14,02,30,10.60
2020,06,14,02,31,10.60
2020,06,14,02,32,10.60
2020,06,14,02,33,10.60
2020,06,14,02,34,10.50
2020,06,14,02,35,10.50
2020,06,14,02,36,10.50
2020,06,14,02,37,10.50
2020,06,14,02,38,10.50
2020,06,14,02,39,10.40
2020,06,14,02,40,10.40
2020,06,14,02,41,10.40
2020,06,14,02,42,10.40
2020,06,14,02,43,10.40
2020,06,14,02,44,10.40
2020,06,14,02,45,10.40
2020,06,14,02,46,10.30
2020,06,14,02,47,10.30
2020,06,14,02,48,10.30
2020,06,14,02,49,10.30
2020,06,14,02,50,10.30
2020,06,14,02,51,10.30
2020,06,14,02,52,10.30
2020,06,14,02,53,10.20
2020,06,14,02,54,10.20
2020,06,14,02,55,10.20
2020,06,14,02,56,10.20
2020,06,14,02,57,10.20
2020,06,14,02,58,10.20
2020,06,14,02,59,10.20
2020,06,14,03,00,10.20
2020,06,14,03,01,10.10
2020,06,14,03,02,10.20
2020,06,14,03,03,10.10
2020,06,14,03,04,10.10
2020,06,14,03,05,10.10
2020,06,14,03,06,10.10
2020,06,14,03,07,10.10
2020,06,14,03,08,10.10
2020,06,14,03,09,10.00
2020,06,14,03,10,10.00
2020,06,14,03,11,10.00
2020,06,14,03,12,9.90
2020,06,14,03,13,9.90
2020,06,14,03,14,9.90
2020,06,14,03,15,9.90
2020,06,14,03,16,9.90
2020,06,14,03,17,9.90
2020,06,14,03,18,9.80
2020,06,14,03,19,9.80
2020,06,14,03,20,9.80
2020,06,14,03,21,9.80
2020,06,14,03,22,9.80
2020,06,14,03,23,9.80
2020,06,14,03,24,9.80
2020,06,14,03,25,9.80
2020,06,14,03,26,9.80
2020,06,14,03,27,9.80
2020,06,14,03,28,9.80
2020,06,14,03,29,9.70
2020,06,14,03,30,9.70
2020,06,14,03,31,9.70
2020,06,14,03,32,9.70
2020,06,14,03,33,9.70
2020,06,14,03,34,9.70
2020,06,14,03,35,9.70
2020,06,14,03,36,9.70
2020,06,14,03,37,9.70
2020,06,14,03,38,9.70
2020,06,14,03,39,9.70
2020,06,14,03,40,9.70
2020,06,14,03,41,9.70
2020,06,14,03,42,9.60
2020,06,14,03,43,9.60
2020,06,14,03,44,9.60
2020,06,14,03,45,9.60
2020,06,14,03,46,9.60
2020,06,14,03,47,9.60
2020,06,14,03,48,9.60
2020,06,14,03,49,9.50
2020,06,14,03,50,9.50
2020,06,14,03,51,9.50
2020,06,14,03,52,9.50
2020,06,14,03,53,9.50
2020,06,14,03,54,9.50
2020,06,14,03,55,9.40
2020,06,14,03,56,9.40
2020,06,14,03,57,9.40
2020,06,14,03,58,9.40
2020,06,14,03,59,9.30
2020,06,14,04,00,9.30
2020,06,14,04,01,9.30
2020,06,14,04,02,9.20
2020,06,14,04,03,9.20
2020,06,14,04,04,9.20
2020,06,14,04,05,9.20
2020,06,14,04,06,9.10
2020,06,14,04,07,9.10
2020,06,14,04,08,9.10
2020,06,14,04,09,9.10
2020,06,14,04,10,9.10
2020,06,14,04,11,9.00
2020,06,14,04,12,9.00
2020,06,14,04,13,9.00
2020,06,14,04,14,8.90
2020,06,14,04,15,8.90
2020,06,14,04,16,8.90
2020,06,14,04,17,8.90
2020,06,14,04,18,8.80
2020,06,14,04,19,8.80
2020,06,14,04,20,8.80
2020,06,14,04,21,8.80
2020,06,14,04,22,8.80
2020,06,14,04,23,8.80
2020,06,14,04,24,8.80
2020,06,14,04,25,8.80
2020,06,14,04,26,8.80
2020,06,14,04,27,8.80
2020,06,14,04,28,8.80
2020,06,14,04,29,8.80
2020,06,14,04,30,8.80
2020,06,14,04,31,8.80
2020,06,14,04,32,8.80
2020,06,14,04,33,8.80
2020,06,14,04,34,8.80
2020,06,14,04,35,8.70
2020,06,14,04,36,8.70
2020,06,14,04,37,8.70
2020,06,14,04,38,8.70
2020,06,14,04,39,8.70
2020,06,14,04,40,8.70
2020,06,14,04,41,8.60
2020,06,14,04,42,8.60
2020,06,14,04,43,8.60
2020,06,14,04,44,8.60
2020,06,14,04,45,8.60
2020,06,14,04,46,8.60
2020,06,14,04,47,8.50
2020,06,14,04,48,8.60
2020,06,14,04,49,8.50
2020,06,14,04,50,8.60
2020,06,14,04,51,8.50
2020,06,14,04,52,8.60
2020,06,14,04,53,8.50
2020,06,14,04,54,8.50
2020,06,14,04,55,8.40
2020,06,14,04,56,8.40
2020,06,14,04,57,8.30
2020,06,14,04,58,8.30
2020,06,14,04,59,8.30
2020,06,14,05,00,8.20
2020,06,14,05,01,8.20
2020,06,14,05,02,8.20
2020,06,14,05,03,8.20
2020,06,14,05,04,8.10
2020,06,14,05,05,8.10
2020,06,14,05,06,8.10
2020,06,14,05,07,8.10
2020,06,14,05,08,8.10
2020,06,14,05,09,8.10
2020,06,14,05,10,8.10
2020,06,14,05,11,8.00
2020,06,14,05,12,8.10
2020,06,14,05,13,8.10
2020,06,14,05,14,8.10
2020,06,14,05,15,8.10
2020,06,14,05,16,8.10
2020,06,14,05,17,8.10
2020,06,14,05,18,8.00
2020,06,14,05,19,8.00
2020,06,14,05,20,8.00
2020,06,14,05,21,8.00
2020,06,14,05,22,8.00
2020,06,14,05,23,8.00
2020,06,14,05,24,8.00
2020,06,14,05,25,8.00
2020,06,14,05,26,8.00
2020,06,14,05,27,8.00
2020,06,14,05,28,8.00
2020,06,14,05,29,8.00
2020,06,14,05,30,8.00
2020,06,14,05,31,8.00
2020,06,14,05,32,8.00
2020,06,14,05,33,8.00
2020,06,14,05,34,7.90
2020,06,14,05,35,7.90
2020,06,14,05,36,7.80
2020,06,14,05,37,7.80
2020,06,14,05,38,7.80
2020,06,14,05,39,7.80
2020,06,14,05,40,7.80
2020,06,14,05,41,7.80
2020,06,14,05,42,7.80
2020,06,14,05,43,7.80
2020,06,14,05,44,7.80
2020,06,14,05,45,7.80
2020,06,14,05,46,7.80
2020,06,14,05,47,7.80
2020,06,14,05,48,7.70
2020,06,14,05,49,7.70
2020,06,14,05,50,7.70
2020,06,14,05,51,7.70
2020,06,14,05,52,7.70
2020,06,14,05,53,7.70
2020,06,14,05,54,7.70
2020,06,14,05,55,7.70
2020,06,14,05,56,7.60
2020,06,14,05,57,7.60
2020,06,14,05,58,7.60
2020,06,14,05,59,7.60
2020,06,14,06,00,7.60
2020,06,14,06,01,7.60
2020,06,14,06,02,7.60
2020,06,14,06,03,7.60
2020,06,14,06,04,7.60
2020,06,14,06,05,7.60
2020,06,14,06,06,7.60
2020,06,14,06,07,7.60
2020,06,14,06,08,7.60
2020,06,14,06,09,7.60
2020,06,14,06,10,7.60
2020,06,14,06,11,7.60
2020,06,14,06,12,7.60
2020,06,14,06,13,7.60
2020,06,14,06,14,7.60
2020,06,14,06,15,7.60
2020,06,14,06,16,7.60
2020,06,14,06,17,7.60
2020,06,14,06,18,7.60
2020,06,14,06,19,7.60
2020,06,14,06,20,7.60
2020,06,14,06,21,7.70
2020,06,14,06,22,7.70
2020,06,14,06,23,7.80
2020,06,14,06,24,7.80
2020,06,14,06,25,7.80
2020,06,14,06,26,7.90
2020,06,14,06,27,7.90
2020,06,14,06,28,8.00
2020,06,14,06,29,8.10
2020,06,14,06,30,8.10
2020,06,14,06,31,8.20
2020,06,14,06,32,8.30
2020,06,14,06,33,8.30
2020,06,14,06,34,8.30
2020,06,14,06,35,8.40
2020,06,14,06,36,8.40
2020,06,14,06,37,8.50
2020,06,14,06,38,8.60
2020,06,14,06,39,8.70
2020,06,14,06,40,8.80
2020,06,14,06,41,8.80
2020,06,14,06,42,8.90
2020,06,14,06,43,9.00
2020,06,14,06,44,9.00
2020,06,14,06,45,9.10
2020,06,14,06,46,9.10
2020,06,14,06,47,9.10
2020,06,14,06,48,9.20
2020,06,14,06,49,9.30
2020,06,14,06,50,9.30
2020,06,14,06,51,9.40
2020,06,14,06,52,9.40
2020,06,14,06,53,9.50
2020,06,14,06,54,9.50
2020,06,14,06,55,9.60
2020,06,14,06,56,9.70
2020,06,14,06,57,9.80
2020,06,14,06,58,9.80
2020,06,14,06,59,9.90
2020,06,14,07,00,10.00
2020,06,14,07,01,10.10
2020,06,14,07,02,10.20
2020,06,14,07,03,10.30
2020,06,14,07,04,10.40
2020,06,14,07,05,10.40
2020,06,14,07,06,10.50
2020,06,14,07,07,10.60
2020,06,14,07,08,10.60
2020,06,14,07,09,10.70
2020,06,14,07,10,10.80
2020,06,14,07,11,10.90
2020,06,14,07,12,10.90
2020,06,14,07,13,11.00
2020,06,14,07,14,11.10
2020,06,14,07,15,11.30
2020,06,14,07,16,11.30
2020,06,14,07,17,11.40
2020,06,14,07,18,11.40
2020,06,14,07,19,11.50
2020,06,14,07,20,11.60
2020,06,14,07,21,11.70
2020,06,14,07,22,11.80
2020,06,14,07,23,11.90
2020,06,14,07,24,12.00
2020,06,14,07,25,12.00
2020,06,14,07,26,12.10
2020,06,14,07,27,12.20
2020,06,14,07,28,12.30
2020,06,14,07,29,12.40
2020,06,14,07,30,12.50
2020,06,14,07,31,12.60
2020,06,14,07,32,12.60
2020,06,14,07,33,12.60
2020,06,14,07,34,12.70
2020,06,14,07,35,12.80
2020,06,14,07,36,12.80
2020,06,14,07,37,12.80
2020,06,14,07,38,12.90
2020,06,14,07,39,13.00
2020,06,14,07,40,13.00
2020,06,14,07,41,13.10
2020,06,14,07,42,13.20
2020,06,14,07,43,13.20
2020,06,14,07,44,13.20
2020,06,14,07,45,13.20
2020,06,14,07,46,13.30
2020,06,14,07,47,13.40
2020,06,14,07,48,13.50
2020,06,14,07,49,13.60
2020,06,14,07,50,13.70
2020,06,14,07,51,13.80
2020,06,14,07,52,13.80
2020,06,14,07,53,13.90
2020,06,14,07,54,13.90
2020,06,14,07,55,13.90
2020,06,14,07,56,14.00
2020,06,14,07,57,14.10
2020,06,14,07,58,14.10
2020,06,14,07,59,14.20
2020,06,14,08,00,14.20
2020,06,14,08,01,14.30
2020,06,14,08,02,14.30
2020,06,14,08,03,14.30
2020,06,14,08,04,14.20
2020,06,14,08,05,14.20
2020,06,14,08,06,14.10
2020,06,14,08,07,14.20
2020,06,14,08,08,14.20
2020,06,14,08,09,14.20
2020,06,14,08,10,14.30
2020,06,14,08,11,14.30
2020,06,14,08,12,14.40
2020,06,14,08,13,14.40
2020,06,14,08,14,14.50
2020,06,14,08,15,14.50
2020,06,14,08,16,14.50
2020,06,14,08,17,14.50
2020,06,14,08,18,14.50
2020,06,14,08,19,14.50
2020,06,14,08,20,14.40
2020,06,14,08,21,14.40
2020,06,14,08,22,14.40
2020,06,14,08,23,14.50
2020,06,14,08,24,14.50
2020,06,14,08,25,14.50
2020,06,14,08,26,14.40
2020,06,14,08,27,14.30
2020,06,14,08,28,14.30
2020,06,14,08,29,14.30
2020,06,14,08,30,14.30
2020,06,14,08,31,14.30
2020,06,14,08,32,14.40
2020,06,14,08,33,14.40
2020,06,14,08,34,14.50
2020,06,14,08,35,14.50
2020,06,14,08,36,14.60
2020,06,14,08,37,14.60
2020,06,14,08,38,14.60
2020,06,14,08,39,14.60
2020,06,14,08,40,14.60
2020,06,14,08,41,14.70
2020,06,14,08,42,14.70
2020,06,14,08,43,14.60
2020,06,14,08,44,14.60
2020,06,14,08,45,14.60
2020,06,14,08,46,14.60
2020,06,14,08,47,14.60
2020,06,14,08,48,14.70
2020,06,14,08,49,14.70
2020,06,14,08,50,14.70
2020,06,14,08,51,14.80
2020,06,14,08,52,14.90
2020,06,14,08,53,14.90
2020,06,14,08,54,14.90
2020,06,14,08,55,14.90
2020,06,14,08,56,14.90
2020,06,14,08,57,14.90
2020,06,14,08,58,15.00
2020,06,14,08,59,14.90
2020,06,14,09,00,14.90
2020,06,14,09,01,15.00
2020,06,14,09,02,15.00
2020,06,14,09,03,15.00
2020,06,14,09,04,15.00
2020,06,14,09,05,15.00
2020,06,14,09,06,14.90
2020,06,14,09,07,14.90
2020,06,14,09,08,14.90
2020,06,14,09,09,14.80
2020,06,14,09,10,14.80
2020,06,14,09,11,14.80
2020,06,14,09,12,14.80
2020,06,14,09,13,14.80
2020,06,14,09,14,14.80
2020,06,14,09,15,14.90
2020,06,14,09,16,14.80
2020,06,14,09,17,14.80
2020,06,14,09,18,14.80
2020,06,14,09,19,14.90
2020,06,14,09,20,14.90
2020,06,14,09,21,14.90
2020,06,14,09,22,14.80
2020,06,14,09,23,14.70
2020,06,14,09,24,14.50
2020,06,14,09,25,14.40
2020,06,14,09,26,14.40
2020,06,14,09,27,14.50
2020,06,14,09,28,14.40
2020,06,14,09,29,14.50
2020,06,14,09,30,14.60
2020,06,14,09,31,14.70
2020,06,14,09,32,14.80
2020,06,14,09,33,14.80
2020,06,14,09,34,14.90
2020,06,14,09,35,15.10
2020,06,14,09,36,15.10
2020,06,14,09,37,15.10
2020,06,14,09,38,15.10
2020,06,14,09,39,15.10
2020,06,14,09,40,15.10
2020,06,14,09,41,15.10
2020,06,14,09,42,15.20
2020,06,14,09,43,15.30
2020,06,14,09,44,15.30
2020,06,14,09,45,15.30
2020,06,14,09,46,15.30
2020,06,14,09,47,15.30
2020,06,14,09,48,15.40
2020,06,14,09,49,15.50
2020,06,14,09,50,15.60
2020,06,14,09,51,15.70
2020,06,14,09,52,15.70
2020,06,14,09,53,15.70
2020,06,14,09,54,15.60
2020,06,14,09,55,15.50
2020,06,14,09,56,15.40
2020,06,14,09,57,15.30
2020,06,14,09,58,15.20
2020,06,14,09,59,15.20
2020,06,14,10,00,15.30
2020,06,14,10,01,15.40
2020,06,14,10,02,15.50
2020,06,14,10,03,15.60
2020,06,14,10,04,15.60
2020,06,14,10,05,15.60
2020,06,14,10,06,15.50
2020,06,14,10,07,15.40
2020,06,14,10,08,15.40
2020,06,14,10,09,15.30
2020,06,14,10,10,15.20
2020,06,14,10,11,15.10
2020,06,14,10,12,15.10
2020,06,14,10,13,15.00
2020,06,14,10,14,15.00
2020,06,14,10,15,15.10
2020,06,14,10,16,15.10
2020,06,14,10,17,15.10
2020,06,14,10,18,15.20
2020,06,14,10,19,15.10
2020,06,14,10,20,15.20
2020,06,14,10,21,15.30
2020,06,14,10,22,15.40
2020,06,14,10,23,15.40
2020,06,14,10,24,15.50
2020,06,14,10,25,15.60
2020,06,14,10,26,15.70
2020,06,14,10,27,15.80
2020,06,14,10,28,15.90
2020,06,14,10,29,16.00
2020,06,14,10,30,16.10
2020,06,14,10,31,16.10
2020,06,14,10,32,16.10
2020,06,14,10,33,15.90
2020,06,14,10,34,15.80
2020,06,14,10,35,15.70
2020,06,14,10,36,15.50
2020,06,14,10,37,15.40
2020,06,14,10,38,15.20
2020,06,14,10,39,15.10
2020,06,14,10,40,15.10
2020,06,14,10,41,15.10
2020,06,14,10,42,15.10
2020,06,14,10,43,15.10
2020,06,14,10,44,15.00
2020,06,14,10,45,15.00
2020,06,14,10,46,14.90
2020,06,14,10,47,14.80
2020,06,14,10,48,14.70
2020,06,14,10,49,14.60
2020,06,14,10,50,14.60
2020,06,14,10,51,14.60
2020,06,14,10,52,14.50
2020,06,14,10,53,14.40
2020,06,14,10,54,14.40
2020,06,14,10,55,14.30
2020,06,14,10,56,14.30
2020,06,14,10,57,14.20
2020,06,14,10,58,14.20
2020,06,14,10,59,14.30
2020,06,14,11,00,14.40
2020,06,14,11,01,14.50
2020,06,14,11,02,14.50
2020,06,14,11,03,14.50
2020,06,14,11,04,14.40
2020,06,14,11,05,14.40
2020,06,14,11,06,14.40
2020,06,14,11,07,14.30
2020,06,14,11,08,14.30
2020,06,14,11,09,14.30
2020,06,14,11,10,14.30
2020,06,14,11,11,14.30
2020,06,14,11,12,14.30
2020,06,14,11,13,14.40
2020,06,14,11,14,14.40
2020,06,14,11,15,14.40
2020,06,14,11,16,14.40
2020,06,14,11,17,14.40
2020,06,14,11,18,14.40
2020,06,14,11,19,14.40
2020,06,14,11,20,14.40
2020,06,14,11,21,14.40
2020,06,14,11,22,14.40
2020,06,14,11,23,14.40
2020,06,14,11,24,14.50
2020,06,14,11,25,14.50
2020,06,14,11,26,14.50
2020,06,14,11,27,14.50
2020,06,14,11,28,14.60
2020,06,14,11,29,14.50
2020,06,14,11,30,14.50
2020,06,14,11,31,14.50
2020,06,14,11,32,14.50
2020,06,14,11,33,14.50
2020,06,14,11,34,14.50
2020,06,14,11,35,14.50
2020,06,14,11,36,14.50
2020,06,14,11,37,14.60
2020,06,14,11,38,14.60
2020,06,14,11,39,14.70
2020,06,14,11,40,14.70
2020,06,14,11,41,14.70
2020,06,14,11,42,14.80
2020,06,14,11,43,14.70
2020,06,14,11,44,14.70
2020,06,14,11,45,14.70
2020,06,14,11,46,14.70
2020,06,14,11,47,14.80
2020,06,14,11,48,14.90
2020,06,14,11,49,15.00
2020,06,14,11,50,15.10
2020,06,14,11,51,15.20
2020,06,14,11,52,15.30
2020,06,14,11,53,15.40
2020,06,14,11,54,15.40
2020,06,14,11,55,15.50
2020,06,14,11,56,15.50
2020,06,14,11,57,15.50
2020,06,14,11,58,15.50
2020,06,14,11,59,15.60
2020,06,14,12,00,15.60
2020,06,14,12,01,15.70
2020,06,14,12,02,15.70
2020,06,14,12,03,15.70
2020,06,14,12,04,15.80
2020,06,14,12,05,15.70
2020,06,14,12,06,15.60
2020,06,14,12,07,15.60
2020,06,14,12,08,15.60
2020,06,14,12,09,15.60
2020,06,14,12,10,15.60
2020,06,14,12,11,15.80
2020,06,14,12,12,15.90
2020,06,14,12,13,16.00
2020,06,14,12,14,16.10
2020,06,14,12,15,16.10
2020,06,14,12,16,16.00
2020,06,14,12,17,15.90
2020,06,14,12,18,15.90
2020,06,14,12,19,15.90
2020,06,14,12,20,15.90
2020,06,14,12,21,16.00
2020,06,14,12,22,16.00
2020,06,14,12,23,16.10
2020,06,14,12,24,16.20
2020,06,14,12,25,16.30
2020,06,14,12,26,16.30
2020,06,14,12,27,16.30
2020,06,14,12,28,16.20
2020,06,14,12,29,16.10
2020,06,14,12,30,16.10
2020,06,14,12,31,16.10
2020,06,14,12,32,16.00
2020,06,14,12,33,16.00
2020,06,14,12,34,16.10
2020,06,14,12,35,16.00
2020,06,14,12,36,16.00
2020,06,14,12,37,15.90
2020,06,14,12,38,16.00
2020,06,14,12,39,15.90
2020,06,14,12,40,15.90
2020,06,14,12,41,15.90
2020,06,14,12,42,15.90
2020,06,14,12,43,15.90
2020,06,14,12,44,15.90
2020,06,14,12,45,15.80
2020,06,14,12,46,15.80
2020,06,14,12,47,15.80
2020,06,14,12,48,15.90
2020,06,14,12,49,15.90
2020,06,14,12,50,16.00
2020,06,14,12,51,16.00
2020,06,14,12,52,16.10
2020,06,14,12,53,16.10
2020,06,14,12,54,16.00
2020,06,14,12,55,16.00
2020,06,14,12,56,16.00
2020,06,14,12,57,15.90
2020,06,14,12,58,15.90
2020,06,14,12,59,15.80
2020,06,14,13,00,15.80
2020,06,14,13,01,15.80
2020,06,14,13,02,15.80
2020,06,14,13,03,15.80
2020,06,14,13,04,15.80
2020,06,14,13,05,15.80
2020,06,14,13,06,15.80
2020,06,14,13,07,15.90
2020,06,14,13,08,16.00
2020,06,14,13,09,16.10
2020,06,14,13,10,16.20
2020,06,14,13,11,16.20
2020,06,14,13,12,16.30
2020,06,14,13,13,16.40
2020,06,14,13,14,16.40
2020,06,14,13,15,16.40
2020,06,14,13,16,16.30
2020,06,14,13,17,16.20
2020,06,14,13,18,16.20
2020,06,14,13,19,16.20
2020,06,14,13,20,16.20
2020,06,14,13,21,16.10
2020,06,14,13,22,16.10
2020,06,14,13,23,16.00
2020,06,14,13,24,15.90
2020,06,14,13,25,15.80
2020,06,14,13,26,15.80
2020,06,14,13,27,15.80
2020,06,14,13,28,15.80
2020,06,14,13,29,15.80
2020,06,14,13,30,15.80
2020,06,14,13,31,15.80
2020,06,14,13,32,15.80
2020,06,14,13,33,15.70
2020,06,14,13,34,15.70
2020,06,14,13,35,15.70
2020,06,14,13,36,15.70
2020,06,14,13,37,15.70
2020,06,14,13,38,15.60
2020,06,14,13,39,15.60
2020,06,14,13,40,15.60
2020,06,14,13,41,15.80
2020,06,14,13,42,15.90
2020,06,14,13,43,16.00
2020,06,14,13,44,16.10
2020,06,14,13,45,16.20
2020,06,14,13,46,16.30
2020,06,14,13,47,16.50
2020,06,14,13,48,16.60
2020,06,14,13,49,16.80
2020,06,14,13,50,16.80
2020,06,14,13,51,17.00
2020,06,14,13,52,17.00
2020,06,14,13,53,17.00
2020,06,14,13,54,17.00
2020,06,14,13,55,16.80
2020,06,14,13,56,16.70
2020,06,14,13,57,16.60
2020,06,14,13,58,16.60
2020,06,14,13,59,16.50
2020,06,14,14,00,16.50
2020,06,14,14,01,16.50
2020,06,14,14,02,16.50
2020,06,14,14,03,16.50
2020,06,14,14,04,16.50
2020,06,14,14,05,16.50
2020,06,14,14,06,16.50
2020,06,14,14,07,16.50
2020,06,14,14,08,16.50
2020,06,14,14,09,16.50
2020,06,14,14,10,16.50
2020,06,14,14,11,16.50
2020,06,14,14,12,16.50
2020,06,14,14,13,16.60
2020,06,14,14,14,16.60
2020,06,14,14,15,16.60
2020,06,14,14,16,16.60
2020,06,14,14,17,16.70
2020,06,14,14,18,16.70
2020,06,14,14,19,16.80
2020,06,14,14,20,16.90
2020,06,14,14,21,17.00
2020,06,14,14,22,17.00
2020,06,14,14,23,17.00
2020,06,14,14,24,16.90
2020,06,14,14,25,16.90
2020,06,14,14,26,17.00
2020,06,14,14,27,17.00
2020,06,14,14,28,17.20
2020,06,14,14,29,17.30
2020,06,14,14,30,17.40
2020,06,14,14,31,17.40
2020,06,14,14,32,17.40
2020,06,14,14,33,17.30
2020,06,14,14,34,17.40
2020,06,14,14,35,17.30
2020,06,14,14,36,17.30
2020,06,14,14,37,17.30
2020,06,14,14,38,17.30
2020,06,14,14,39,17.30
2020,06,14,14,40,17.30
2020,06,14,14,41,17.20
2020,06,14,14,42,17.20
2020,06,14,14,43,17.20
2020,06,14,14,44,17.20
2020,06,14,14,45,17.20
2020,06,14,14,46,17.20
2020,06,14,14,47,17.30
2020,06,14,14,48,17.30
2020,06,14,14,49,17.30
2020,06,14,14,50,17.20
2020,06,14,14,51,17.30
2020,06,14,14,52,17.40
2020,06,14,14,53,17.50
2020,06,14,14,54,17.70
2020,06,14,14,55,17.70
2020,06,14,14,56,17.70
2020,06,14,14,57,17.70
2020,06,14,14,58,17.70
2020,06,14,14,59,17.60
2020,06,14,15,00,17.50
2020,06,14,15,01,17.40
2020,06,14,15,02,17.40
2020,06,14,15,03,17.40
2020,06,14,15,04,17.40
2020,06,14,15,05,17.40
2020,06,14,15,06,17.30
2020,06,14,15,07,17.30
2020,06,14,15,08,17.20
2020,06,14,15,09,17.20
2020,06,14,15,10,17.20
2020,06,14,15,11,17.20
2020,06,14,15,12,17.20
2020,06,14,15,13,17.20
2020,06,14,15,14,17.20
2020,06,14,15,15,17.20
2020,06,14,15,16,17.20
2020,06,14,15,17,17.20
2020,06,14,15,18,17.20
2020,06,14,15,19,17.30
2020,06,14,15,20,17.30
2020,06,14,15,21,17.20
2020,06,14,15,22,17.20
2020,06,14,15,23,17.20
2020,06,14,15,24,17.20
2020,06,14,15,25,17.20
2020,06,14,15,26,17.20
2020,06,14,15,27,17.20
2020,06,14,15,28,17.20
2020,06,14,15,29,17.10
2020,06,14,15,30,17.10
2020,06,14,15,31,17.20
2020,06,14,15,32,17.20
2020,06,14,15,33,17.20
2020,06,14,15,34,17.20
2020,06,14,15,35,17.20
2020,06,14,15,36,17.20
2020,06,14,15,37,17.20
2020,06,14,15,38,17.20
2020,06,14,15,39,17.20
2020,06,14,15,40,17.30
2020,06,14,15,41,17.30
2020,06,14,15,42,17.30
2020,06,14,15,43,17.30
2020,06,14,15,44,17.30
2020,06,14,15,45,17.30
2020,06,14,15,46,17.30
2020,06,14,15,47,17.30
2020,06,14,15,48,17.30
2020,06,14,15,49,17.30
2020,06,14,15,50,17.40
2020,06,14,15,51,17.40
2020,06,14,15,52,17.40
2020,06,14,15,53,17.30
2020,06,14,15,54,17.40
2020,06,14,15,55,17.40
2020,06,14,15,56,17.40
2020,06,14,15,57,17.40
2020,06,14,15,58,17.40
2020,06,14,15,59,17.40
2020,06,14,16,00,17.40
2020,06,14,16,01,17.30
2020,06,14,16,02,17.40
2020,06,14,16,03,17.30
2020,06,14,16,04,17.40
2020,06,14,16,05,17.40
2020,06,14,16,06,17.40
2020,06,14,16,07,17.40
2020,06,14,16,08,17.40
2020,06,14,16,09,17.50
2020,06,14,16,10,17.50
2020,06,14,16,11,17.50
2020,06,14,16,12,17.50
2020,06,14,16,13,17.50
2020,06,14,16,14,17.60
2020,06,14,16,15,17.60
2020,06,14,16,16,17.60
2020,06,14,16,17,17.70
2020,06,14,16,18,17.70
2020,06,14,16,19,17.70
2020,06,14,16,20,17.70
2020,06,14,16,21,17.70
2020,06,14,16,22,17.60
2020,06,14,16,23,17.60
2020,06,14,16,24,17.60
2020,06,14,16,25,17.60
2020,06,14,16,26,17.60
2020,06,14,16,27,17.70
2020,06,14,16,28,17.70
2020,06,14,16,29,17.70
2020,06,14,16,30,17.80
2020,06,14,16,31,17.80
2020,06,14,16,32,17.80
2020,06,14,16,33,17.90
2020,06,14,16,34,17.90
2020,06,14,16,35,17.90
2020,06,14,16,36,18.00
2020,06,14,16,37,18.00
2020,06,14,16,38,18.10
2020,06,14,16,39,18.10
2020,06,14,16,40,18.10
2020,06,14,16,41,18.20
2020,06,14,16,42,18.20
2020,06,14,16,43,18.20
2020,06,14,16,44,18.20
2020,06,14,16,45,18.20
2020,06,14,16,46,18.20
2020,06,14,16,47,18.30
2020,06,14,16,48,18.30
2020,06,14,16,49,18.40
2020,06,14,16,50,18.50
2020,06,14,16,51,18.60
2020,06,14,16,52,18.70
2020,06,14,16,53,18.70
2020,06,14,16,54,18.80
2020,06,14,16,55,18.90
2020,06,14,16,56,18.90
2020,06,14,16,57,19.00
2020,06,14,16,58,19.00
2020,06,14,16,59,19.00
2020,06,14,17,00,19.10
2020,06,14,17,01,19.10
2020,06,14,17,02,19.10
2020,06,14,17,03,19.10
2020,06,14,17,04,19.10
2020,06,14,17,05,19.10
2020,06,14,17,06,19.10
2020,06,14,17,07,19.10
2020,06,14,17,08,19.00
2020,06,14,17,09,19.00
2020,06,14,17,10,19.10
2020,06,14,17,11,19.10
2020,06,14,17,12,19.10
2020,06,14,17,13,19.10
2020,06,14,17,14,19.10
2020,06,14,17,15,19.10
2020,06,14,17,16,19.10
2020,06,14,17,17,19.10
2020,06,14,17,18,19.10
2020,06,14,17,19,19.00
2020,06,14,17,20,19.00
2020,06,14,17,21,19.00
2020,06,14,17,22,18.90
2020,06,14,17,23,18.90
2020,06,14,17,24,18.80
2020,06,14,17,25,18.70
2020,06,14,17,26,18.60
2020,06,14,17,27,18.50
2020,06,14,17,28,18.50
2020,06,14,17,29,18.50